Simultaneous Nadir Overpasses (SNOs) Predictions

Prediction of SNOs between AQUA and METOP-A Satellite Orbit:

Table of predicted SNOs for the next 14.0 days since TLE Epoch: 8/2/2013
Index Date (AQUA) Time (AQUA) Lat,Lon (AQUA) SZA (AQUA ) Date (METOP-A) Time (METOP-A) Lat,Lon (METOP-A) SZA (METOP-A ) Distance(km) Time Diff (sec)
1 08/03/2013 00:34:59 -73.84, -14.48 123.61 08/03/2013 00:34:23 -73.83, -14.56 123.62 2.88 36
2 08/03/2013 01:24:28 73.90, 153.02 56.47 08/03/2013 01:25:01 73.91, 152.97 56.47 1.50 33
3 08/05/2013 20:09:15 -73.88, 51.86 122.82 08/05/2013 20:08:45 -73.86, 51.94 122.83 2.99 30
4 08/05/2013 20:58:44 73.95,-140.65 57.27 08/05/2013 20:59:23 73.94,-140.54 57.25 3.69 39
5 08/08/2013 15:43:30 -73.84, 118.39 122.08 08/08/2013 15:43:09 -73.84, 118.30 122.07 3.09 21
6 08/08/2013 16:32:59 73.91, -74.14 58.01 08/08/2013 16:33:47 73.92, -74.18 58.02 1.67 48
7 08/11/2013 10:28:10 73.32, 18.28 58.18 08/11/2013 10:27:02 73.27, 16.05 58.23 71.57 68
8 08/11/2013 11:17:46 -73.87,-175.24 121.23 08/11/2013 11:17:32 -73.87,-175.24 121.23 0.34 14
9 08/11/2013 12:07:15 73.95, -7.78 58.87 08/11/2013 12:08:10 73.95, -7.71 58.86 2.06 55
10 08/14/2013 06:02:31 73.64, 84.05 59.37 08/14/2013 06:01:19 73.59, 83.18 59.37 27.86 72
11 08/14/2013 06:52:01 -73.86,-108.79 120.39 08/14/2013 06:51:55 -73.89,-108.79 120.36 2.90 6
12 08/14/2013 07:41:30 73.95, 58.65 59.72 08/14/2013 07:42:33 73.97, 58.74 59.73 3.31 63




NCC Satellite Simultaneous Nadir Overpasses (SNOs) Prediction Service
